EW6157 Weather Reports


time (UTC)temp
C
wind
direction
speed
KPH
gust
KPH
rain 1hr
cm
rain 24hr
cm
rain mn
cm
humidity
%
barometer
mb
20260505074555 19 250 4.8 12.9 0.00 0.00 0.00 27 997.8
20260505073104 19 227 8.0 14.5 0.00 0.00 0.00 27 997.7
20260505071558 20 208 11.3 19.3 0.00 0.00 0.00 26 997.7
20260505070045 20 237 11.3 16.1 0.00 0.00 0.00 25 997.9
20260505064543 21 227 9.7 20.9 0.00 0.00 0.00 24 997.9
20260505063039 21 228 11.3 24.1 0.00 0.00 0.00 24 997.9
20260505061535 21 243 11.3 20.9 0.00 0.00 0.00 23 998.0
20260505060043 22 205 11.3 24.1 0.00 0.00 0.00 23 998.1
20260505054530 22 217 12.9 25.7 0.00 0.00 0.00 22 998.0
20260505053030 22 222 11.3 20.9 0.00 0.00 0.00 22 998.1
20260505051528 22 190 14.5 25.7 0.00 0.00 0.00 22 998.2
20260505041524 22 191 6.4 17.7 0.00 0.00 0.00 24 998.3
20260505040020 22 181 11.3 24.1 0.00 0.00 0.00 23 998.5
20260505034519 22 210 11.3 22.5 0.00 0.00 0.00 23 998.4
20260505033018 23 234 14.5 25.7 0.00 0.00 0.00 22 998.3
20260505031517 23 208 9.7 20.9 0.00 0.00 0.00 21 998.3
20260505030017 23 212 9.7 19.3 0.00 0.00 0.00 19 998.2
20260505024515 23 231 9.7 20.9 0.00 0.00 0.00 17 998.1
20260505023021 23 213 4.8 16.1 0.00 0.00 0.00 16 997.8
20260505021516 25 173 9.7 20.9 0.00 0.00 0.00 15 997.8
20260505020014 25 252 8.0 29.0 0.00 0.00 0.00 14 997.8
20260505014515 25 202 12.9 25.7 0.00 0.00 0.00 14 997.6
20260505013011 26 191 14.5 25.7 0.00 0.00 0.00 14 997.7
20260505011512 26 225 12.9 22.5 0.00 0.00 0.00 14 997.5
20260505010009 26 222 9.7 24.1 0.00 0.00 0.00 13 997.4
20260505004514 27 203 12.9 27.4 0.00 0.00 0.00 13 997.7
20260505003006 27 275 16.1 30.6 0.00 0.00 0.00 13 997.7
20260505001506 27 232 17.7 25.7 0.00 0.00 0.00 12 997.9
20260505000009 28 272 14.5 25.7 0.00 0.00 0.00 11 997.7
20260504234506 28 281 19.3 33.8 0.00 0.00 0.00 12 997.9
20260504233003 28 214 12.9 24.1 0.00 0.00 0.00 14 997.8
20260504231502 28 231 8.0 19.3 0.00 0.00 0.00 17 997.6
20260504230200 28 235 9.7 25.7 0.00 0.00 0.00 19 997.8
20260504224559 29 212 9.7 25.7 0.00 0.00 0.00 20 997.8
20260504223101 29 230 8.0 22.5 0.00 0.00 0.00 18 998.2
20260504221553 30 240 8.0 19.3 0.00 0.00 0.00 16 998.5
20260504220053 30 231 12.9 30.6 0.00 0.00 0.00 16 998.5
20260504214606 30 284 12.9 25.7 0.00 0.00 0.00 16 998.7
20260504213055 29 257 9.7 17.7 0.00 0.00 0.00 17 998.9
20260504211504 29 278 12.9 25.7 0.00 0.00 0.00 18 999.3
20260504204558 28 235 14.5 22.5 0.00 0.00 0.00 20 999.8
20260504203104 29 207 9.7 27.4 0.00 0.00 0.00 20 999.9
20260504201608 29 255 11.3 22.5 0.00 0.00 0.00 20 1000.1
20260504200051 28 231 11.3 30.6 0.00 0.00 0.00 21 1000.4
20260504194552 28 221 12.9 25.7 0.00 0.00 0.00 21 1000.6
20260504193045 28 205 16.1 30.6 0.00 0.00 0.00 22 1000.8
20260504191555 28 332 11.3 20.9 0.00 0.00 0.00 22 1001.0
20260504190046 28 229 12.9 24.1 0.00 0.00 0.00 23 1001.2
20260504184555 28 210 11.3 22.5 0.00 0.00 0.00 23 1001.5
20260504183110 28 251 12.9 29.0 0.00 0.00 0.00 22 1001.8
20260504181538 28 227 12.9 24.1 0.00 0.00 0.00 23 1002.3
20260504180032 28 259 16.1 24.1 0.00 0.00 0.00 23 1002.6
20260504174531 27 278 12.9 29.0 0.00 0.00 0.00 24 1002.8
20260504173031 27 308 12.9 25.7 0.00 0.00 0.00 24 1003.1
20260504171527 27 267 12.9 25.7 0.00 0.00 0.00 25 1003.2
20260504120110 13 215 8.0 14.5 0.00 0.00 0.00 63 1003.8
20260504081517 15 220 8.0 20.9 0.00 0.00 0.00 55 1005.5